Location: Boiro
(42.6475°N, 8.8834°W)
Time: 14:31:16
(UTC+01:00)

Vanguard 3 - Pass Details

Date: 02 December 2021
Orbit: 508 x 3260 km, 33.3° (Epoch: 20 January)

Event Time Altitude Azimuth Distance (km) Brightness Sun altitude
Rises 05:26:35 0° 231° (SW) 7,044 - -36.2°
Reaches altitude 10° 05:31:25 10° 226° (SW) 6,146 - -35.3°
Exits shadow 05:36:49 22° 219° (SW) 5,185 10.8 -34.3°
Maximum altitude 05:49:57 49° 160° (SSE) 3,612 10.4 -31.9°
Drops below altitude 10° 06:04:26 10° 92° (E) 4,925 12.1 -29.2°
Sets 06:07:48 0° 87° (E) 5,613 12.7 -28.6°
